| time (UTC) | temp C | wind direction | speed KPH | gust KPH | rain 1hr cm | rain 24hr cm | rain mn cm | humidity % | barometer mb |
| 20260508060037 | 3 | 115 | 0.0 | 0.0 | 0.00 | 0.00 | 0.00 | 80 | 1007.2 |
| 20260508054544 | 3 | 114 | 0.0 | 0.0 | 0.00 | 0.00 | 0.00 | 79 | 1007.6 |
| 20260508053021 | 3 | 114 | 0.0 | 0.0 | 0.00 | 0.00 | 0.00 | 78 | 1007.7 |
| 20260508051520 | 3 | 115 | 0.0 | 0.0 | 0.00 | 0.00 | 0.00 | 79 | 1007.6 |
| 20260508050018 | 3 | 115 | 0.0 | 0.0 | 0.00 | 0.00 | 0.00 | 78 | 1007.7 |
| 20260508044517 | 3 | 115 | 0.0 | 0.0 | 0.00 | 0.00 | 0.00 | 79 | 1007.7 |
| 20260508043014 | 4 | 114 | 0.0 | 0.0 | 0.00 | 0.00 | 0.00 | 77 | 1007.8 |
| 20260508041515 | 4 | 115 | 0.0 | 0.0 | 0.00 | 0.00 | 0.00 | 74 | 1007.8 |
| 20260508040033 | 5 | 115 | 0.0 | 0.0 | 0.00 | 0.00 | 0.00 | 74 | 1007.9 |
| 20260508034511 | 4 | 115 | 0.0 | 0.0 | 0.00 | 0.00 | 0.00 | 74 | 1008.0 |
| 20260508033057 | 4 | 115 | 0.0 | 0.0 | 0.00 | 0.00 | 0.00 | 78 | 1008.0 |
| 20260508031554 | 5 | 115 | 0.0 | 0.0 | 0.00 | 0.00 | 0.00 | 73 | 1007.8 |
| 20260508030056 | 5 | 114 | 0.0 | 0.0 | 0.00 | 0.00 | 0.00 | 74 | 1007.8 |
| 20260508024552 | 5 | 114 | 0.0 | 0.0 | 0.00 | 0.00 | 0.00 | 78 | 1007.7 |
| 20260508023048 | 5 | 115 | 0.0 | 0.0 | 0.00 | 0.00 | 0.00 | 74 | 1007.6 |
| 20260508021546 | 6 | 115 | 0.0 | 0.0 | 0.00 | 0.00 | 0.00 | 70 | 1007.8 |
| 20260508020044 | 6 | 114 | 0.0 | 0.0 | 0.00 | 0.00 | 0.00 | 67 | 1007.8 |
| 20260508014545 | 6 | 115 | 0.0 | 0.0 | 0.00 | 0.00 | 0.00 | 72 | 1007.8 |
| 20260508013034 | 6 | 115 | 0.0 | 0.0 | 0.00 | 0.00 | 0.00 | 64 | 1007.8 |
| 20260508011533 | 7 | 115 | 0.0 | 0.0 | 0.00 | 0.00 | 0.00 | 63 | 1007.6 |
| 20260508010031 | 7 | 115 | 0.0 | 0.0 | 0.00 | 0.00 | 0.00 | 62 | 1007.5 |
| 20260508004531 | 8 | 115 | 0.0 | 0.0 | 0.00 | 0.00 | 0.00 | 57 | 1007.4 |
| 20260508003027 | 8 | 115 | 0.0 | 6.4 | 0.00 | 0.00 | 0.00 | 62 | 1006.9 |
| 20260508001525 | 8 | 115 | 0.0 | 1.6 | 0.00 | 0.00 | 0.00 | 64 | 1006.8 |
| 20260508000125 | 10 | 115 | 0.0 | 3.2 | 0.00 | 0.00 | 0.00 | 57 | 1006.7 |
| 20260507234540 | 10 | 115 | 0.0 | 3.2 | 0.00 | 0.00 | 0.00 | 57 | 1006.7 |
| 20260507233013 | 10 | 115 | 0.0 | 1.6 | 0.00 | 0.00 | 0.00 | 57 | 1006.4 |
| 20260507231507 | 11 | 114 | 0.0 | 4.8 | 0.00 | 0.00 | 0.00 | 56 | 1006.1 |
| 20260507230055 | 11 | 115 | 0.0 | 6.4 | 0.00 | 0.00 | 0.00 | 55 | 1005.8 |
| 20260507224555 | 12 | 115 | 0.0 | 4.8 | 0.00 | 0.00 | 0.00 | 52 | 1005.5 |
| 20260507223105 | 12 | 115 | 0.0 | 3.2 | 0.00 | 0.00 | 0.00 | 54 | 1005.1 |
| 20260507221554 | 12 | 115 | 0.0 | 4.8 | 0.00 | 0.00 | 0.00 | 52 | 1005.0 |
| 20260507220053 | 13 | 115 | 0.0 | 4.8 | 0.00 | 0.00 | 0.00 | 53 | 1005.0 |
| 20260507214553 | 13 | 115 | 0.0 | 6.4 | 0.00 | 0.00 | 0.00 | 52 | 1004.8 |
| 20260507213051 | 14 | 115 | 1.6 | 8.0 | 0.00 | 0.00 | 0.00 | 45 | 1004.6 |
| 20260507211600 | 14 | 115 | 0.0 | 9.7 | 0.00 | 0.00 | 0.00 | 42 | 1004.4 |
| 20260507204544 | 16 | 115 | 1.6 | 9.7 | 0.00 | 0.00 | 0.00 | 42 | 1003.9 |
| 20260507203038 | 15 | 115 | 1.6 | 6.4 | 0.00 | 0.00 | 0.00 | 49 | 1003.9 |
| 20260507201535 | 15 | 115 | 0.0 | 8.0 | 0.00 | 0.00 | 0.00 | 56 | 1003.7 |
| 20260507200041 | 15 | 115 | 0.0 | 8.0 | 0.00 | 0.00 | 0.00 | 49 | 1003.8 |
| 20260507194547 | 14 | 115 | 0.0 | 3.2 | 0.00 | 0.00 | 0.00 | 51 | 1003.9 |
| 20260507193032 | 15 | 115 | 3.2 | 14.5 | 0.00 | 0.00 | 0.00 | 50 | 1003.9 |
| 20260507191531 | 15 | 115 | 1.6 | 9.7 | 0.00 | 0.00 | 0.00 | 58 | 1003.9 |
| 20260507190016 | 15 | 115 | 0.0 | 11.3 | 0.00 | 0.00 | 0.00 | 58 | 1004.0 |
| 20260507184512 | 15 | 115 | 0.0 | 9.7 | 0.00 | 0.00 | 0.00 | 59 | 1004.0 |
| 20260507183118 | 15 | 115 | 0.0 | 12.9 | 0.00 | 0.00 | 0.00 | 59 | 1003.9 |
| 20260507181601 | 15 | 114 | 3.2 | 16.1 | 0.00 | 0.00 | 0.00 | 56 | 1004.0 |
| 20260507180059 | 15 | 115 | 0.0 | 6.4 | 0.00 | 0.00 | 0.00 | 61 | 1004.3 |
| 20260507174603 | 15 | 114 | 0.0 | 4.8 | 0.00 | 0.00 | 0.00 | 59 | 1004.3 |
| 20260507173102 | 15 | 114 | 0.0 | 9.7 | 0.00 | 0.00 | 0.00 | 61 | 1004.3 |
| 20260507171550 | 15 | 114 | 0.0 | 6.4 | 0.00 | 0.00 | 0.00 | 58 | 1004.3 |
| 20260507170049 | 15 | 115 | 6.4 | 12.9 | 0.00 | 0.00 | 0.00 | 56 | 1004.5 |
| 20260507164608 | 15 | 115 | 3.2 | 12.9 | 0.00 | 0.00 | 0.00 | 61 | 1004.6 |
| 20260507163052 | 14 | 114 | 0.0 | 4.8 | 0.00 | 0.00 | 0.00 | 74 | 1004.7 |
| 20260507161547 | 14 | 115 | 1.6 | 3.2 | 0.00 | 0.00 | 0.00 | 67 | 1004.9 |
| 20260507160032 | 13 | 115 | 1.6 | 8.0 | 0.00 | 0.00 | 0.00 | 65 | 1005.3 |
| 20260507154531 | 14 | 115 | 3.2 | 8.0 | 0.00 | 0.00 | 0.00 | 67 | 1005.6 |
| 20260507153036 | 14 | 115 | 1.6 | 12.9 | 0.00 | 0.00 | 0.00 | 68 | 1005.5 |
| 20260507151533 | 13 | 115 | 1.6 | 12.9 | 0.00 | 0.00 | 0.00 | 72 | 1005.4 |
| 20260507150034 | 14 | 115 | 1.6 | 9.7 | 0.00 | 0.00 | 0.00 | 70 | 1005.6 |
| 20260507144534 | 13 | 114 | 3.2 | 14.5 | 0.00 | 0.00 | 0.00 | 69 | 1005.7 |
| 20260507143029 | 15 | 114 | 3.2 | 6.4 | 0.00 | 0.00 | 0.00 | 69 | 1006.0 |
| 20260507141516 | 15 | 114 | 0.0 | 6.4 | 0.00 | 0.00 | 0.00 | 67 | 1006.1 |
| 20260507140010 | 15 | 114 | 0.0 | 6.4 | 0.00 | 0.00 | 0.00 | 74 | 1006.3 |
| 20260507134557 | 15 | 114 | 0.0 | 1.6 | 0.00 | 0.00 | 0.00 | 70 | 1006.4 |
| 20260507133056 | 15 | 114 | 0.0 | 3.2 | 0.00 | 0.00 | 0.00 | 75 | 1006.3 |
| 20260507131601 | 15 | 114 | 0.0 | 3.2 | 0.00 | 0.00 | 0.00 | 72 | 1006.3 |
| 20260507130055 | 15 | 114 | 0.0 | 1.6 | 0.00 | 0.00 | 0.00 | 76 | 1006.4 |
| 20260507124601 | 13 | 114 | 0.0 | 6.4 | 0.00 | 0.00 | 0.00 | 81 | 1006.7 |
| 20260507123049 | 13 | 114 | 0.0 | 3.2 | 0.00 | 0.00 | 0.00 | 90 | 1006.5 |
| 20260507121551 | 13 | 115 | 0.0 | 4.8 | 0.00 | 0.00 | 0.00 | 93 | 1006.4 |
| 20260507120051 | 14 | 114 | 0.0 | 0.0 | 0.00 | 0.00 | 0.00 | 97 | 1006.9 |
| 20260507114553 | 12 | 115 | 0.0 | 0.0 | 0.00 | 0.00 | 0.00 | 97 | 1007.0 |
| 20260507113053 | 11 | 115 | 0.0 | 6.4 | 0.00 | 0.00 | 0.00 | 96 | 1006.7 |
| 20260507111536 | 11 | 115 | 0.0 | 1.6 | 0.00 | 0.00 | 0.00 | 98 | 1007.1 |
| 20260507110025 | 10 | 115 | 0.0 | 3.2 | 0.00 | 0.00 | 0.00 | 98 | 1006.9 |
| 20260507104534 | 9 | 115 | 0.0 | 0.0 | 0.00 | 0.00 | 0.00 | 99 | 1006.8 |
| 20260507103026 | 8 | 115 | 0.0 | 0.0 | 0.00 | 0.00 | 0.00 | 100 | 1007.1 |
| 20260507101525 | 6 | 115 | 0.0 | 0.0 | 0.00 | 0.00 | 0.00 | 100 | 1006.6 |
| 20260507100020 | 6 | 115 | 0.0 | 0.0 | 0.00 | 0.00 | 0.00 | 100 | 1006.4 |
| 20260507094509 | 6 | 115 | 0.0 | 0.0 | 0.00 | 0.00 | 0.00 | 100 | 1006.6 |
| 20260507093008 | 6 | 115 | 0.0 | 0.0 | 0.00 | 0.00 | 0.00 | 100 | 1006.4 |
| 20260507091507 | 6 | 115 | 0.0 | 0.0 | 0.00 | 0.00 | 0.00 | 100 | 1006.5 |
| 20260507090006 | 6 | 115 | 0.0 | 0.0 | 0.00 | 0.00 | 0.00 | 100 | 1006.6 |
| 20260507084506 | 7 | 115 | 0.0 | 0.0 | 0.00 | 0.00 | 0.00 | 100 | 1006.4 |
| 20260507083003 | 7 | 115 | 0.0 | 0.0 | 0.00 | 0.00 | 0.00 | 100 | 1006.0 |
| 20260507081500 | 7 | 115 | 0.0 | 0.0 | 0.00 | 0.00 | 0.00 | 100 | 1006.1 |
| 20260507074555 | 7 | 115 | 0.0 | 0.0 | 0.00 | 0.00 | 0.00 | 100 | 1006.7 |
| 20260507073046 | 7 | 115 | 0.0 | 0.0 | 0.00 | 0.00 | 0.00 | 100 | 1006.1 |
| 20260507071543 | 7 | 115 | 0.0 | 0.0 | 0.00 | 0.00 | 0.00 | 100 | 1006.2 |
| 20260507070045 | 7 | 115 | 0.0 | 0.0 | 0.00 | 0.00 | 0.00 | 100 | 1005.7 |
| 20260507064541 | 7 | 115 | 0.0 | 0.0 | 0.00 | 0.00 | 0.00 | 100 | 1005.8 |
| 20260507063043 | 7 | 115 | 0.0 | 0.0 | 0.00 | 0.00 | 0.00 | 100 | 1005.6 |
| 20260507061542 | 8 | 115 | 0.0 | 0.0 | 0.00 | 0.00 | 0.00 | 100 | 1005.6 |